TimeEST,TemperatureF,Dew PointF,Humidity,Sea Level PressureIn,VisibilityMPH,Wind Direction,Wind SpeedMPH,Gust SpeedMPH,PrecipitationIn,Events,Conditions,WindDirDegrees,DateUTC
12:56 AM,12.0,7.0,80,30.38,10.0,ESE,4.6,-,N/A,,Clear,120,2013-02-10 05:56:00
1:56 AM,12.0,8.1,84,30.37,10.0,SE,4.6,-,N/A,,Clear,130,2013-02-10 06:56:00
2:56 AM,15.1,8.1,74,30.38,10.0,Calm,Calm,-,N/A,,Clear,0,2013-02-10 07:56:00
3:56 AM,10.9,8.1,88,30.35,10.0,East,4.6,-,N/A,,Clear,100,2013-02-10 08:56:00
4:56 AM,14.0,9.0,80,30.35,10.0,ESE,4.6,-,N/A,,Clear,120,2013-02-10 09:56:00
5:56 AM,10.0,6.1,84,30.36,10.0,East,4.6,-,N/A,,Clear,100,2013-02-10 10:56:00
6:56 AM,8.1,5.0,87,30.37,10.0,East,8.1,-,N/A,,Clear,80,2013-02-10 11:56:00
7:56 AM,10.0,6.1,84,30.38,10.0,East,8.1,-,N/A,,Clear,80,2013-02-10 12:56:00
8:56 AM,14.0,8.1,77,30.36,10.0,East,10.4,-,N/A,,Clear,100,2013-02-10 13:56:00
9:56 AM,21.0,10.0,63,30.34,10.0,ESE,11.5,-,N/A,,Clear,110,2013-02-10 14:56:00
10:56 AM,28.0,12.9,53,30.30,10.0,ESE,10.4,-,N/A,,Clear,120,2013-02-10 15:56:00
11:56 AM,32.0,12.9,45,30.28,10.0,SE,11.5,-,N/A,,Clear,130,2013-02-10 16:56:00
12:56 PM,35.1,12.9,40,30.26,10.0,SE,10.4,-,N/A,,Clear,130,2013-02-10 17:56:00
1:56 PM,36.0,14.0,41,30.24,10.0,SE,6.9,-,N/A,,Scattered Clouds,140,2013-02-10 18:56:00
2:56 PM,37.0,16.0,42,30.18,10.0,ESE,11.5,-,N/A,,Mostly Cloudy,110,2013-02-10 19:56:00
3:56 PM,37.0,16.0,42,30.18,10.0,ESE,11.5,-,N/A,,Overcast,120,2013-02-10 20:56:00
4:56 PM,36.0,16.0,44,30.18,10.0,SE,13.8,-,N/A,,Overcast,130,2013-02-10 21:56:00
5:56 PM,35.1,18.0,50,30.17,10.0,ESE,12.7,-,N/A,,Overcast,120,2013-02-10 22:56:00
6:56 PM,35.1,18.0,50,30.16,10.0,SE,12.7,-,N/A,,Overcast,130,2013-02-10 23:56:00
7:56 PM,34.0,18.0,52,30.14,10.0,ESE,16.1,20.7,N/A,,Overcast,120,2013-02-11 00:56:00
8:56 PM,34.0,17.1,50,30.14,10.0,SE,10.4,17.3,N/A,,Overcast,140,2013-02-11 01:56:00
9:56 PM,34.0,17.1,50,30.09,10.0,ESE,12.7,-,N/A,,Mostly Cloudy,120,2013-02-11 02:56:00
10:56 PM,34.0,17.1,50,30.05,10.0,SE,12.7,19.6,N/A,,Overcast,130,2013-02-11 03:56:00
11:56 PM,34.0,19.0,54,30.03,10.0,ESE,15.0,-,N/A,,Overcast,120,2013-02-11 04:56:00